contact:dominique.lefevre@mio.osupytheas.fr, maurice.libes@osupytheas.fr, didier.mallarino@osupytheas.fr
Project:EMSO http://www.emso-fr.org/EMSO-France
Depth: 2436.0 m
Title:EMSO Ligure Ouest : Data MII capteur MICROCAT
DateTime_Computer,Latitude,Longitude,Temperature,Conductivity,Pressure,DateTime_Instrument
DateTime_Computer,Latitude,Longitude,degC,S m-1,dbar,DateTime_Instrument
2024-05-04T00:02:20Z,42.805,6.029,13.3044,4.60133,2470.717,2024-5-04T02:05:01Z
2024-05-04T00:05:23Z,42.805,6.029,13.3043,4.60134,2470.74,2024-5-04T02:08:04Z
2024-05-04T00:08:26Z,42.805,6.029,13.3041,4.60133,2470.717,2024-5-04T02:11:07Z
2024-05-04T00:11:29Z,42.805,6.029,13.3043,4.60134,2470.707,2024-5-04T02:14:10Z
2024-05-04T00:14:32Z,42.805,6.029,13.3044,4.60134,2470.74,2024-5-04T02:17:14Z
2024-05-04T00:17:35Z,42.805,6.029,13.3040,4.60133,2470.74,2024-5-04T02:20:17Z
2024-05-04T00:20:38Z,42.805,6.029,13.3043,4.60135,2470.74,2024-5-04T02:23:20Z
2024-05-04T00:23:41Z,42.805,6.029,13.3045,4.60135,2470.754,2024-5-04T02:26:23Z
2024-05-04T00:26:44Z,42.805,6.029,13.3044,4.60134,2470.717,2024-5-04T02:29:26Z
2024-05-04T00:29:47Z,42.805,6.029,13.3041,4.60134,2470.754,2024-5-04T02:32:29Z
2024-05-04T00:32:50Z,42.805,6.029,13.3043,4.60135,2470.74,2024-5-04T02:35:32Z
2024-05-04T00:35:53Z,42.805,6.029,13.3044,4.60136,2470.8,2024-5-04T02:38:35Z
2024-05-04T00:38:56Z,42.805,6.029,13.3043,4.60134,2470.74,2024-5-04T02:41:38Z
2024-05-04T00:42:00Z,42.805,6.029,13.3041,4.60133,2470.777,2024-5-04T02:44:41Z
2024-05-04T00:45:03Z,42.805,6.029,13.3043,4.60135,2470.763,2024-5-04T02:47:44Z
2024-05-04T00:48:06Z,42.805,6.029,13.3045,4.60134,2470.763,2024-5-04T02:50:47Z
2024-05-04T00:51:09Z,42.805,6.029,13.3041,4.60133,2470.777,2024-5-04T02:53:51Z
2024-05-04T00:54:12Z,42.805,6.029,13.3045,4.60134,2470.787,2024-5-04T02:56:54Z
2024-05-04T00:57:15Z,42.805,6.029,13.3046,4.60134,2470.8,2024-5-04T02:59:57Z
2024-05-04T01:00:18Z,42.805,6.029,13.3041,4.60133,2470.787,2024-5-04T03:03:00Z
2024-05-04T01:03:21Z,42.805,6.029,13.3042,4.60132,2470.787,2024-5-04T03:06:03Z
2024-05-04T01:06:24Z,42.805,6.029,13.3042,4.60133,2470.787,2024-5-04T03:09:06Z
2024-05-04T01:09:27Z,42.805,6.029,13.3042,4.60133,2470.763,2024-5-04T03:12:09Z
2024-05-04T01:12:30Z,42.805,6.029,13.3041,4.60133,2470.8,2024-5-04T03:15:12Z
2024-05-04T01:15:33Z,42.805,6.029,13.3041,4.60135,2470.8,2024-5-04T03:18:15Z
2024-05-04T01:18:36Z,42.805,6.029,13.3046,4.60135,2470.81,2024-5-04T03:21:18Z
2024-05-04T01:21:40Z,42.805,6.029,13.3043,4.60135,2470.8,2024-5-04T03:24:21Z
2024-05-04T01:24:43Z,42.805,6.029,13.3044,4.60135,2470.81,2024-5-04T03:27:24Z
2024-05-04T01:27:46Z,42.805,6.029,13.3041,4.60135,2470.81,2024-5-04T03:30:27Z
2024-05-04T01:30:49Z,42.805,6.029,13.3043,4.60136,2470.81,2024-5-04T03:33:30Z
2024-05-04T01:33:52Z,42.805,6.029,13.3042,4.60138,2470.81,2024-5-04T03:36:34Z
2024-05-04T01:36:55Z,42.805,6.029,13.3044,4.60137,2470.81,2024-5-04T03:39:37Z
2024-05-04T01:39:58Z,42.805,6.029,13.3041,4.60135,2470.81,2024-5-04T03:42:40Z
2024-05-04T01:43:01Z,42.805,6.029,13.3044,4.60135,2470.847,2024-5-04T03:45:43Z
2024-05-04T01:46:04Z,42.805,6.029,13.3042,4.60133,2470.847,2024-5-04T03:48:46Z
2024-05-04T01:49:07Z,42.805,6.029,13.3045,4.60135,2470.857,2024-5-04T03:51:49Z
2024-05-04T01:52:10Z,42.805,6.029,13.3046,4.60137,2470.847,2024-5-04T03:54:52Z
2024-05-04T01:55:13Z,42.805,6.029,13.3045,4.60133,2470.857,2024-5-04T03:57:55Z
2024-05-04T01:58:16Z,42.805,6.029,13.3043,4.60134,2470.833,2024-5-04T04:00:58Z
2024-05-04T02:01:21Z,42.805,6.029,13.3045,4.60135,2470.81,2024-5-04T04:04:03Z
2024-05-04T02:04:24Z,42.805,6.029,13.3042,4.60134,2470.871,2024-5-04T04:07:06Z
2024-05-04T02:07:27Z,42.805,6.029,13.3042,4.60135,2470.847,2024-5-04T04:10:09Z
2024-05-04T02:10:30Z,42.805,6.029,13.3043,4.60134,2470.871,2024-5-04T04:13:12Z
2024-05-04T02:13:34Z,42.805,6.029,13.3041,4.60135,2470.81,2024-5-04T04:16:15Z
2024-05-04T02:16:37Z,42.805,6.029,13.3043,4.60134,2470.847,2024-5-04T04:19:18Z
2024-05-04T02:19:40Z,42.805,6.029,13.3048,4.60134,2470.857,2024-5-04T04:22:21Z
2024-05-04T02:22:43Z,42.805,6.029,13.3043,4.60135,2470.88,2024-5-04T04:25:25Z
2024-05-04T02:25:46Z,42.805,6.029,13.3043,4.60134,2470.833,2024-5-04T04:28:28Z
2024-05-04T02:28:49Z,42.805,6.029,13.3043,4.60134,2470.833,2024-5-04T04:31:31Z
2024-05-04T02:31:52Z,42.805,6.029,13.3039,4.60135,2470.871,2024-5-04T04:34:34Z
2024-05-04T02:34:55Z,42.805,6.029,13.3042,4.60137,2470.894,2024-5-04T04:37:37Z
2024-05-04T02:37:58Z,42.805,6.029,13.3046,4.60137,2470.88,2024-5-04T04:40:40Z
2024-05-04T02:41:01Z,42.805,6.029,13.3045,4.60135,2470.88,2024-5-04T04:43:43Z
2024-05-04T02:44:04Z,42.805,6.029,13.3041,4.60135,2470.894,2024-5-04T04:46:46Z
2024-05-04T02:47:07Z,42.805,6.029,13.3041,4.60135,2470.894,2024-5-04T04:49:49Z
2024-05-04T02:50:10Z,42.805,6.029,13.3042,4.60134,2470.857,2024-5-04T04:52:52Z
2024-05-04T02:53:14Z,42.805,6.029,13.3039,4.60137,2470.894,2024-5-04T04:55:55Z
2024-05-04T02:56:17Z,42.805,6.029,13.3045,4.60135,2470.88,2024-5-04T04:58:58Z
2024-05-04T02:59:20Z,42.805,6.029,13.3041,4.60137,2470.88,2024-5-04T05:02:01Z
2024-05-04T03:02:23Z,42.805,6.029,13.3046,4.60136,2470.927,2024-5-04T05:05:05Z
2024-05-04T03:05:26Z,42.805,6.029,13.3042,4.60136,2470.894,2024-5-04T05:08:08Z
2024-05-04T03:08:29Z,42.805,6.029,13.3046,4.60137,2470.917,2024-5-04T05:11:11Z
2024-05-04T03:11:32Z,42.805,6.029,13.3046,4.60135,2470.917,2024-5-04T05:14:14Z
2024-05-04T03:14:35Z,42.805,6.029,13.3043,4.60137,2470.904,2024-5-04T05:17:17Z
2024-05-04T03:17:38Z,42.805,6.029,13.3046,4.60135,2470.88,2024-5-04T05:20:20Z
2024-05-04T03:20:41Z,42.805,6.029,13.3042,4.60137,2470.88,2024-5-04T05:23:23Z
2024-05-04T03:23:44Z,42.805,6.029,13.3046,4.60136,2470.88,2024-5-04T05:26:26Z
2024-05-04T03:26:47Z,42.805,6.029,13.3045,4.60137,2470.95,2024-5-04T05:29:29Z
2024-05-04T03:29:51Z,42.805,6.029,13.3043,4.60137,2470.904,2024-5-04T05:32:32Z
2024-05-04T03:32:54Z,42.805,6.029,13.3047,4.60137,2470.917,2024-5-04T05:35:35Z
2024-05-04T03:35:57Z,42.805,6.029,13.3045,4.60135,2470.904,2024-5-04T05:38:38Z
2024-05-04T03:39:00Z,42.805,6.029,13.3046,4.60138,2470.927,2024-5-04T05:41:41Z
2024-05-04T03:42:03Z,42.805,6.029,13.3047,4.60137,2470.904,2024-5-04T05:44:45Z
2024-05-04T03:45:06Z,42.805,6.029,13.3047,4.60137,2470.913,2024-5-04T05:47:48Z
2024-05-04T03:48:09Z,42.805,6.029,13.3040,4.60137,2470.927,2024-5-04T05:50:51Z
2024-05-04T03:51:12Z,42.805,6.029,13.3041,4.60137,2470.927,2024-5-04T05:53:54Z
2024-05-04T03:54:15Z,42.805,6.029,13.3046,4.60137,2470.904,2024-5-04T05:56:57Z
2024-05-04T03:57:18Z,42.805,6.029,13.3047,4.60140,2470.927,2024-5-04T06:00:00Z
2024-05-04T04:00:21Z,42.805,6.029,13.3046,4.60142,2470.927,2024-5-04T06:03:03Z
2024-05-04T04:03:24Z,42.805,6.029,13.3044,4.60139,2470.927,2024-5-04T06:06:06Z
2024-05-04T04:06:27Z,42.805,6.029,13.3048,4.60138,2470.894,2024-5-04T06:09:09Z
2024-05-04T04:09:31Z,42.805,6.029,13.3047,4.60137,2470.88,2024-5-04T06:12:12Z
2024-05-04T04:12:34Z,42.805,6.029,13.3046,4.60138,2470.94,2024-5-04T06:15:15Z
2024-05-04T04:15:37Z,42.805,6.029,13.3048,4.60138,2470.904,2024-5-04T06:18:18Z
2024-05-04T04:18:40Z,42.805,6.029,13.3043,4.60140,2470.964,2024-5-04T06:21:21Z
2024-05-04T04:21:43Z,42.805,6.029,13.3046,4.60138,2470.917,2024-5-04T06:24:25Z
2024-05-04T04:24:46Z,42.805,6.029,13.3044,4.60139,2470.88,2024-5-04T06:27:28Z
2024-05-04T04:27:49Z,42.805,6.029,13.3046,4.60140,2470.904,2024-5-04T06:30:31Z
2024-05-04T04:30:52Z,42.805,6.029,13.3045,4.60139,2470.94,2024-5-04T06:33:34Z
2024-05-04T04:33:55Z,42.805,6.029,13.3051,4.60140,2470.917,2024-5-04T06:36:37Z
2024-05-04T04:36:58Z,42.805,6.029,13.3048,4.60140,2470.894,2024-5-04T06:39:40Z
2024-05-04T04:40:01Z,42.805,6.029,13.3050,4.60140,2470.904,2024-5-04T06:42:43Z
2024-05-04T04:43:04Z,42.805,6.029,13.3045,4.60140,2470.94,2024-5-04T06:45:46Z
2024-05-04T04:46:07Z,42.805,6.029,13.3049,4.60140,2470.94,2024-5-04T06:48:49Z
2024-05-04T04:49:11Z,42.805,6.029,13.3046,4.60140,2470.904,2024-5-04T06:51:52Z
2024-05-04T04:52:14Z,42.805,6.029,13.3050,4.60140,2470.927,2024-5-04T06:54:55Z
2024-05-04T04:55:17Z,42.805,6.029,13.3048,4.60140,2470.927,2024-5-04T06:57:58Z
2024-05-04T04:58:20Z,42.805,6.029,13.3048,4.60140,2470.95,2024-5-04T07:01:02Z
2024-05-04T05:01:23Z,42.805,6.029,13.3050,4.60140,2470.927,2024-5-04T07:04:05Z
2024-05-04T05:04:26Z,42.805,6.029,13.3051,4.60141,2470.927,2024-5-04T07:07:08Z
2024-05-04T05:07:29Z,42.805,6.029,13.3051,4.60140,2470.927,2024-5-04T07:10:11Z
2024-05-04T05:10:32Z,42.805,6.029,13.3047,4.60140,2470.927,2024-5-04T07:13:14Z
2024-05-04T05:13:35Z,42.805,6.029,13.3051,4.60141,2470.927,2024-5-04T07:16:17Z
2024-05-04T05:16:38Z,42.805,6.029,13.3050,4.60140,2470.917,2024-5-04T07:19:20Z
2024-05-04T05:19:41Z,42.805,6.029,13.3046,4.60141,2470.94,2024-5-04T07:22:23Z
2024-05-04T05:22:44Z,42.805,6.029,13.3051,4.60141,2470.927,2024-5-04T07:25:26Z
2024-05-04T05:25:47Z,42.805,6.029,13.3053,4.60140,2470.927,2024-5-04T07:28:29Z
2024-05-04T05:28:51Z,42.805,6.029,13.3053,4.60140,2470.927,2024-5-04T07:31:32Z
2024-05-04T05:31:54Z,42.805,6.029,13.3048,4.60141,2470.927,2024-5-04T07:34:35Z
2024-05-04T05:34:57Z,42.805,6.029,13.3053,4.60142,2470.904,2024-5-04T07:37:38Z
2024-05-04T05:38:00Z,42.805,6.029,13.3048,4.60142,2470.94,2024-5-04T07:40:42Z
2024-05-04T05:41:03Z,42.805,6.029,13.3048,4.60144,2470.927,2024-5-04T07:43:45Z
2024-05-04T05:44:06Z,42.805,6.029,13.3051,4.60142,2470.917,2024-5-04T07:46:48Z
2024-05-04T05:47:09Z,42.805,6.029,13.3048,4.60142,2470.904,2024-5-04T07:49:51Z
2024-05-04T05:50:12Z,42.805,6.029,13.3049,4.60146,2470.88,2024-5-04T07:52:54Z
2024-05-04T05:53:15Z,42.805,6.029,13.3051,4.60142,2470.894,2024-5-04T07:55:57Z
2024-05-04T05:56:18Z,42.805,6.029,13.3051,4.60143,2470.894,2024-5-04T07:59:00Z
2024-05-04T05:59:21Z,42.805,6.029,13.3047,4.60144,2470.88,2024-5-04T08:02:03Z
2024-05-04T06:02:25Z,42.805,6.029,13.3051,4.60144,2470.917,2024-5-04T08:05:06Z
2024-05-04T06:05:28Z,42.805,6.029,13.3047,4.60143,2470.88,2024-5-04T08:08:09Z
2024-05-04T06:08:31Z,42.805,6.029,13.3049,4.60143,2470.917,2024-5-04T08:11:12Z
2024-05-04T06:11:34Z,42.805,6.029,13.3050,4.60142,2470.917,2024-5-04T08:14:16Z
2024-05-04T06:14:37Z,42.805,6.029,13.3049,4.60144,2470.917,2024-5-04T08:17:19Z
2024-05-04T06:17:40Z,42.805,6.029,13.3051,4.60149,2470.857,2024-5-04T08:20:22Z
2024-05-04T06:20:43Z,42.805,6.029,13.3046,4.60146,2470.88,2024-5-04T08:23:25Z
2024-05-04T06:23:46Z,42.805,6.029,13.3051,4.60144,2470.88,2024-5-04T08:26:28Z
2024-05-04T06:26:49Z,42.805,6.029,13.3051,4.60144,2470.894,2024-5-04T08:29:31Z
2024-05-04T06:29:52Z,42.805,6.029,13.3051,4.60144,2470.894,2024-5-04T08:32:34Z
2024-05-04T06:32:55Z,42.805,6.029,13.3051,4.60145,2470.88,2024-5-04T08:35:37Z
2024-05-04T06:35:59Z,42.805,6.029,13.3051,4.60142,2470.857,2024-5-04T08:38:40Z
2024-05-04T06:39:02Z,42.805,6.029,13.3048,4.60144,2470.857,2024-5-04T08:41:43Z
2024-05-04T06:42:05Z,42.805,6.029,13.3048,4.60146,2470.894,2024-5-04T08:44:46Z
2024-05-04T06:45:08Z,42.805,6.029,13.3054,4.60147,2470.857,2024-5-04T08:47:49Z
2024-05-04T06:48:11Z,42.805,6.029,13.3051,4.60148,2470.857,2024-5-04T08:50:53Z
2024-05-04T06:51:14Z,42.805,6.029,13.3052,4.60145,2470.917,2024-5-04T08:53:56Z
2024-05-04T06:54:17Z,42.805,6.029,13.3046,4.60144,2470.871,2024-5-04T08:56:59Z
2024-05-04T06:57:20Z,42.805,6.029,13.3051,4.60145,2470.857,2024-5-04T09:00:02Z
2024-05-04T07:00:23Z,42.805,6.029,13.3048,4.60144,2470.857,2024-5-04T09:03:05Z
2024-05-04T07:03:26Z,42.805,6.029,13.3048,4.60145,2470.857,2024-5-04T09:06:08Z
2024-05-04T07:06:29Z,42.805,6.029,13.3051,4.60148,2470.857,2024-5-04T09:09:11Z
2024-05-04T07:09:32Z,42.805,6.029,13.3051,4.60150,2470.857,2024-5-04T09:12:14Z
2024-05-04T07:12:35Z,42.805,6.029,13.3050,4.60149,2470.88,2024-5-04T09:15:17Z
2024-05-04T07:15:39Z,42.805,6.029,13.3047,4.60146,2470.857,2024-5-04T09:18:20Z
2024-05-04T07:18:42Z,42.805,6.029,13.3053,4.60155,2470.871,2024-5-04T09:21:23Z
2024-05-04T07:21:45Z,42.805,6.029,13.3048,4.60148,2470.871,2024-5-04T09:24:26Z
2024-05-04T07:24:48Z,42.805,6.029,13.3050,4.60144,2470.857,2024-5-04T09:27:29Z
2024-05-04T07:27:51Z,42.805,6.029,13.3048,4.60144,2470.833,2024-5-04T09:30:33Z
2024-05-04T07:30:54Z,42.805,6.029,13.3050,4.60144,2470.847,2024-5-04T09:33:36Z
2024-05-04T07:33:57Z,42.805,6.029,13.3049,4.60144,2470.857,2024-5-04T09:36:39Z
2024-05-04T07:37:00Z,42.805,6.029,13.3051,4.60146,2470.857,2024-5-04T09:39:42Z
2024-05-04T07:40:03Z,42.805,6.029,13.3048,4.60152,2470.824,2024-5-04T09:42:45Z
2024-05-04T07:43:06Z,42.805,6.029,13.3047,4.60151,2470.833,2024-5-04T09:45:48Z
2024-05-04T07:46:09Z,42.805,6.029,13.3046,4.60148,2470.833,2024-5-04T09:48:51Z
2024-05-04T07:49:12Z,42.805,6.029,13.3050,4.60147,2470.871,2024-5-04T09:51:54Z
2024-05-04T07:52:15Z,42.805,6.029,13.3047,4.60145,2470.833,2024-5-04T09:54:57Z
2024-05-04T07:55:19Z,42.805,6.029,13.3049,4.60152,2470.871,2024-5-04T09:58:00Z
2024-05-04T07:58:22Z,42.805,6.029,13.3047,4.60155,2470.833,2024-5-04T10:01:03Z
2024-05-04T08:01:26Z,42.805,6.029,13.3051,4.60151,2470.833,2024-5-04T10:04:07Z
2024-05-04T08:04:29Z,42.805,6.029,13.3050,4.60163,2470.824,2024-5-04T10:07:11Z
2024-05-04T08:07:32Z,42.805,6.029,13.3046,4.60155,2470.787,2024-5-04T10:10:14Z
2024-05-04T08:10:35Z,42.805,6.029,13.3050,4.60150,2470.824,2024-5-04T10:13:17Z
2024-05-04T08:13:38Z,42.805,6.029,13.3051,4.60151,2470.81,2024-5-04T10:16:20Z
2024-05-04T08:16:41Z,42.805,6.029,13.3051,4.60152,2470.787,2024-5-04T10:19:23Z
2024-05-04T08:19:44Z,42.805,6.029,13.3050,4.60160,2470.8,2024-5-04T10:22:26Z
2024-05-04T08:22:47Z,42.805,6.029,13.3049,4.60157,2470.824,2024-5-04T10:25:29Z
2024-05-04T08:25:50Z,42.805,6.029,13.3054,4.60162,2470.833,2024-5-04T10:28:32Z
2024-05-04T08:28:53Z,42.805,6.029,13.3043,4.60153,2470.81,2024-5-04T10:31:35Z
2024-05-04T08:31:57Z,42.805,6.029,13.3050,4.60148,2470.824,2024-5-04T10:34:38Z
2024-05-04T08:35:00Z,42.805,6.029,13.3051,4.60156,2470.787,2024-5-04T10:37:41Z
2024-05-04T08:38:03Z,42.805,6.029,13.3053,4.60159,2470.824,2024-5-04T10:40:44Z
2024-05-04T08:41:06Z,42.805,6.029,13.3047,4.60155,2470.824,2024-5-04T10:43:48Z
2024-05-04T08:44:09Z,42.805,6.029,13.3051,4.60170,2470.833,2024-5-04T10:46:51Z
2024-05-04T08:47:12Z,42.805,6.029,13.3058,4.60162,2470.81,2024-5-04T10:49:54Z
2024-05-04T08:50:15Z,42.805,6.029,13.3068,4.60175,2470.81,2024-5-04T10:52:57Z
2024-05-04T08:53:18Z,42.805,6.029,13.3079,4.60178,2470.8,2024-5-04T10:56:00Z
2024-05-04T08:56:21Z,42.805,6.029,13.3086,4.60162,2470.824,2024-5-04T10:59:03Z
2024-05-04T08:59:24Z,42.805,6.029,13.3087,4.60167,2470.787,2024-5-04T11:02:06Z
2024-05-04T09:02:27Z,42.805,6.029,13.3095,4.60167,2470.824,2024-5-04T11:05:09Z
2024-05-04T09:05:30Z,42.805,6.029,13.3085,4.60171,2470.81,2024-5-04T11:08:12Z
2024-05-04T09:08:33Z,42.805,6.029,13.3075,4.60175,2470.8,2024-5-04T11:11:15Z
2024-05-04T09:11:37Z,42.805,6.029,13.3074,4.60178,2470.81,2024-5-04T11:14:18Z
2024-05-04T09:14:40Z,42.805,6.029,13.3074,4.60182,2470.8,2024-5-04T11:17:21Z
2024-05-04T09:17:43Z,42.805,6.029,13.3078,4.60155,2470.81,2024-5-04T11:20:24Z
2024-05-04T09:20:46Z,42.805,6.029,13.3078,4.60166,2470.777,2024-5-04T11:23:28Z
2024-05-04T09:23:49Z,42.805,6.029,13.3080,4.60164,2470.8,2024-5-04T11:26:31Z
2024-05-04T09:26:52Z,42.805,6.029,13.3079,4.60175,2470.787,2024-5-04T11:29:34Z
2024-05-04T09:29:55Z,42.805,6.029,13.3084,4.60159,2470.787,2024-5-04T11:32:37Z
2024-05-04T09:32:58Z,42.805,6.029,13.3072,4.60169,2470.81,2024-5-04T11:35:40Z
2024-05-04T09:36:01Z,42.805,6.029,13.3078,4.60158,2470.8,2024-5-04T11:38:43Z
2024-05-04T09:39:04Z,42.805,6.029,13.3067,4.60165,2470.754,2024-5-04T11:41:46Z
2024-05-04T09:42:07Z,42.805,6.029,13.3085,4.60162,2470.763,2024-5-04T11:44:49Z
2024-05-04T09:45:10Z,42.805,6.029,13.3084,4.60163,2470.777,2024-5-04T11:47:52Z
2024-05-04T09:48:14Z,42.805,6.029,13.3070,4.60162,2470.777,2024-5-04T11:50:55Z
2024-05-04T09:51:17Z,42.805,6.029,13.3077,4.60160,2470.754,2024-5-04T11:53:58Z
2024-05-04T09:54:20Z,42.805,6.029,13.3072,4.60158,2470.763,2024-5-04T11:57:01Z
2024-05-04T09:57:23Z,42.805,6.029,13.3071,4.60165,2470.763,2024-5-04T12:00:05Z
2024-05-04T10:00:26Z,42.805,6.029,13.3072,4.60161,2470.763,2024-5-04T12:03:08Z
2024-05-04T10:03:29Z,42.805,6.029,13.3079,4.60165,2470.777,2024-5-04T12:06:11Z
2024-05-04T10:06:32Z,42.805,6.029,13.3076,4.60167,2470.777,2024-5-04T12:09:14Z
2024-05-04T10:09:35Z,42.805,6.029,13.3074,4.60196,2470.777,2024-5-04T12:12:17Z
2024-05-04T10:12:38Z,42.805,6.029,13.3083,4.60174,2470.777,2024-5-04T12:15:20Z
2024-05-04T10:15:41Z,42.805,6.029,13.3069,4.60170,2470.777,2024-5-04T12:18:23Z
2024-05-04T10:18:44Z,42.805,6.029,13.3082,4.60167,2470.763,2024-5-04T12:21:26Z
2024-05-04T10:21:47Z,42.805,6.029,13.3068,4.60175,2470.8,2024-5-04T12:24:29Z
2024-05-04T10:24:50Z,42.805,6.029,13.3069,4.60159,2470.8,2024-5-04T12:27:32Z
2024-05-04T10:27:54Z,42.805,6.029,13.3074,4.60176,2470.787,2024-5-04T12:30:35Z
2024-05-04T10:30:57Z,42.805,6.029,13.3069,4.60172,2470.8,2024-5-04T12:33:38Z
2024-05-04T10:34:00Z,42.805,6.029,13.3076,4.60160,2470.787,2024-5-04T12:36:41Z
2024-05-04T10:37:03Z,42.805,6.029,13.3083,4.60162,2470.754,2024-5-04T12:39:45Z
2024-05-04T10:40:06Z,42.805,6.029,13.3083,4.60161,2470.763,2024-5-04T12:42:48Z
2024-05-04T10:43:09Z,42.805,6.029,13.3068,4.60160,2470.74,2024-5-04T12:45:51Z
2024-05-04T10:46:12Z,42.805,6.029,13.3067,4.60156,2470.763,2024-5-04T12:48:54Z
2024-05-04T10:49:15Z,42.805,6.029,13.3071,4.60155,2470.754,2024-5-04T12:51:57Z
2024-05-04T10:52:18Z,42.805,6.029,13.3066,4.60159,2470.717,2024-5-04T12:55:00Z
2024-05-04T10:55:21Z,42.805,6.029,13.3069,4.60162,2470.717,2024-5-04T12:58:03Z
2024-05-04T10:58:24Z,42.805,6.029,13.3069,4.60180,2470.74,2024-5-04T13:01:06Z
2024-05-04T11:01:27Z,42.805,6.029,13.3073,4.60170,2470.754,2024-5-04T13:04:09Z
2024-05-04T11:04:31Z,42.805,6.029,13.3073,4.60159,2470.74,2024-5-04T13:07:12Z
2024-05-04T11:07:34Z,42.805,6.029,13.3071,4.60167,2470.763,2024-5-04T13:10:15Z
2024-05-04T11:10:37Z,42.805,6.029,13.3070,4.60159,2470.787,2024-5-04T13:13:18Z
2024-05-04T11:13:40Z,42.805,6.029,13.3069,4.60160,2470.754,2024-5-04T13:16:21Z
2024-05-04T11:16:43Z,42.805,6.029,13.3078,4.60181,2470.777,2024-5-04T13:19:25Z
2024-05-04T11:19:46Z,42.805,6.029,13.3078,4.60166,2470.74,2024-5-04T13:22:28Z
2024-05-04T11:22:49Z,42.805,6.029,13.3070,4.60179,2470.777,2024-5-04T13:25:31Z
2024-05-04T11:25:52Z,42.805,6.029,13.3069,4.60157,2470.74,2024-5-04T13:28:34Z
2024-05-04T11:28:55Z,42.805,6.029,13.3071,4.60166,2470.74,2024-5-04T13:31:37Z
2024-05-04T11:31:58Z,42.805,6.029,13.3069,4.60163,2470.74,2024-5-04T13:34:40Z
2024-05-04T11:35:01Z,42.805,6.029,13.3073,4.60175,2470.754,2024-5-04T13:37:43Z
2024-05-04T11:38:04Z,42.805,6.029,13.3080,4.60175,2470.73,2024-5-04T13:40:46Z
2024-05-04T11:41:07Z,42.805,6.029,13.3075,4.60151,2470.763,2024-5-04T13:43:49Z
2024-05-04T11:44:11Z,42.805,6.029,13.3075,4.60166,2470.777,2024-5-04T13:46:52Z
2024-05-04T11:47:14Z,42.805,6.029,13.3069,4.60160,2470.74,2024-5-04T13:49:55Z
2024-05-04T11:50:17Z,42.805,6.029,13.3065,4.60163,2470.717,2024-5-04T13:52:58Z
2024-05-04T11:53:20Z,42.805,6.029,13.3069,4.60160,2470.777,2024-5-04T13:56:02Z
2024-05-04T11:56:23Z,42.805,6.029,13.3073,4.60160,2470.74,2024-5-04T13:59:05Z
2024-05-04T11:59:26Z,42.805,6.029,13.3073,4.60159,2470.777,2024-5-04T14:02:08Z
2024-05-04T12:02:28Z,42.805,6.029,13.3076,4.60157,2470.726,2024-5-04T14:05:10Z
2024-05-04T12:05:31Z,42.805,6.029,13.3072,4.60157,2470.763,2024-5-04T14:08:13Z
2024-05-04T12:08:34Z,42.805,6.029,13.3076,4.60152,2470.717,2024-5-04T14:11:16Z
2024-05-04T12:11:37Z,42.805,6.029,13.3078,4.60157,2470.763,2024-5-04T14:14:19Z
2024-05-04T12:14:40Z,42.805,6.029,13.3071,4.60158,2470.754,2024-5-04T14:17:22Z
2024-05-04T12:17:43Z,42.805,6.029,13.3069,4.60160,2470.75,2024-5-04T14:20:25Z
2024-05-04T12:20:46Z,42.805,6.029,13.3071,4.60158,2470.754,2024-5-04T14:23:28Z
2024-05-04T12:23:49Z,42.805,6.029,13.3070,4.60156,2470.787,2024-5-04T14:26:31Z
2024-05-04T12:26:52Z,42.805,6.029,13.3078,4.60164,2470.8,2024-5-04T14:29:34Z
2024-05-04T12:29:55Z,42.805,6.029,13.3073,4.60156,2470.74,2024-5-04T14:32:37Z
2024-05-04T12:32:59Z,42.805,6.029,13.3076,4.60162,2470.763,2024-5-04T14:35:40Z
2024-05-04T12:36:02Z,42.805,6.029,13.3076,4.60149,2470.754,2024-5-04T14:38:43Z
2024-05-04T12:39:05Z,42.805,6.029,13.3073,4.60156,2470.763,2024-5-04T14:41:46Z
2024-05-04T12:42:08Z,42.805,6.029,13.3064,4.60157,2470.777,2024-5-04T14:44:50Z
2024-05-04T12:45:11Z,42.805,6.029,13.3079,4.60160,2470.777,2024-5-04T14:47:53Z
2024-05-04T12:48:14Z,42.805,6.029,13.3073,4.60175,2470.74,2024-5-04T14:50:56Z
2024-05-04T12:51:17Z,42.805,6.029,13.3070,4.60160,2470.787,2024-5-04T14:53:59Z
2024-05-04T12:54:20Z,42.805,6.029,13.3074,4.60165,2470.763,2024-5-04T14:57:02Z
2024-05-04T12:57:23Z,42.805,6.029,13.3074,4.60153,2470.763,2024-5-04T15:00:05Z
2024-05-04T13:00:26Z,42.805,6.029,13.3073,4.60160,2470.787,2024-5-04T15:03:08Z
2024-05-04T13:03:29Z,42.805,6.029,13.3075,4.60155,2470.763,2024-5-04T15:06:11Z
2024-05-04T13:06:32Z,42.805,6.029,13.3081,4.60157,2470.763,2024-5-04T15:09:14Z
2024-05-04T13:09:36Z,42.805,6.029,13.3074,4.60163,2470.763,2024-5-04T15:12:17Z
2024-05-04T13:12:39Z,42.805,6.029,13.3073,4.60157,2470.787,2024-5-04T15:15:20Z
2024-05-04T13:15:42Z,42.805,6.029,13.3070,4.60165,2470.787,2024-5-04T15:18:23Z
2024-05-04T13:18:45Z,42.805,6.029,13.3074,4.60159,2470.824,2024-5-04T15:21:27Z
2024-05-04T13:21:48Z,42.805,6.029,13.3074,4.60160,2470.8,2024-5-04T15:24:30Z
2024-05-04T13:24:51Z,42.805,6.029,13.3070,4.60160,2470.81,2024-5-04T15:27:33Z
2024-05-04T13:27:54Z,42.805,6.029,13.3075,4.60157,2470.787,2024-5-04T15:30:36Z
2024-05-04T13:30:57Z,42.805,6.029,13.3079,4.60160,2470.763,2024-5-04T15:33:39Z
2024-05-04T13:34:00Z,42.805,6.029,13.3069,4.60160,2470.8,2024-5-04T15:36:42Z
2024-05-04T13:37:03Z,42.805,6.029,13.3076,4.60158,2470.824,2024-5-04T15:39:45Z
2024-05-04T13:40:06Z,42.805,6.029,13.3080,4.60155,2470.8,2024-5-04T15:42:48Z
2024-05-04T13:43:09Z,42.805,6.029,13.3076,4.60166,2470.824,2024-5-04T15:45:51Z
2024-05-04T13:46:13Z,42.805,6.029,13.3073,4.60160,2470.824,2024-5-04T15:48:54Z
2024-05-04T13:49:16Z,42.805,6.029,13.3091,4.60161,2470.81,2024-5-04T15:51:57Z
2024-05-04T13:52:19Z,42.805,6.029,13.3078,4.60166,2470.824,2024-5-04T15:55:00Z
2024-05-04T13:55:22Z,42.805,6.029,13.3077,4.60167,2470.81,2024-5-04T15:58:04Z
2024-05-04T13:58:25Z,42.805,6.029,13.3088,4.60160,2470.787,2024-5-04T16:01:07Z
2024-05-04T14:01:29Z,42.805,6.029,13.3076,4.60171,2470.81,2024-5-04T16:04:10Z
2024-05-04T14:04:32Z,42.805,6.029,13.3087,4.60150,2470.824,2024-5-04T16:07:13Z
2024-05-04T14:07:35Z,42.805,6.029,13.3077,4.60155,2470.847,2024-5-04T16:10:16Z
2024-05-04T14:10:38Z,42.805,6.029,13.3073,4.60163,2470.833,2024-5-04T16:13:20Z
2024-05-04T14:13:41Z,42.805,6.029,13.3074,4.60158,2470.824,2024-5-04T16:16:23Z
2024-05-04T14:16:44Z,42.805,6.029,13.3078,4.60175,2470.833,2024-5-04T16:19:26Z
2024-05-04T14:19:47Z,42.805,6.029,13.3072,4.60165,2470.81,2024-5-04T16:22:29Z
2024-05-04T14:22:50Z,42.805,6.029,13.3073,4.60161,2470.824,2024-5-04T16:25:32Z
2024-05-04T14:25:53Z,42.805,6.029,13.3076,4.60165,2470.833,2024-5-04T16:28:35Z
2024-05-04T14:28:56Z,42.805,6.029,13.3082,4.60173,2470.857,2024-5-04T16:31:38Z
2024-05-04T14:31:59Z,42.805,6.029,13.3078,4.60162,2470.787,2024-5-04T16:34:41Z
2024-05-04T14:35:02Z,42.805,6.029,13.3086,4.60174,2470.871,2024-5-04T16:37:44Z
2024-05-04T14:38:05Z,42.805,6.029,13.3082,4.60176,2470.857,2024-5-04T16:40:47Z
2024-05-04T14:41:09Z,42.805,6.029,13.3087,4.60185,2470.833,2024-5-04T16:43:50Z
2024-05-04T14:44:12Z,42.805,6.029,13.3093,4.60174,2470.857,2024-5-04T16:46:53Z
2024-05-04T14:47:15Z,42.805,6.029,13.3094,4.60188,2470.871,2024-5-04T16:49:57Z
2024-05-04T14:50:18Z,42.805,6.029,13.3089,4.60181,2470.833,2024-5-04T16:53:00Z
2024-05-04T14:53:21Z,42.805,6.029,13.3089,4.60183,2470.871,2024-5-04T16:56:03Z
2024-05-04T14:56:24Z,42.805,6.029,13.3072,4.60186,2470.847,2024-5-04T16:59:06Z
2024-05-04T14:59:27Z,42.805,6.029,13.3098,4.60207,2470.847,2024-5-04T17:02:09Z
2024-05-04T15:02:30Z,42.805,6.029,13.3067,4.60205,2470.857,2024-5-04T17:05:12Z
2024-05-04T15:05:33Z,42.805,6.029,13.3059,4.60177,2470.857,2024-5-04T17:08:15Z
2024-05-04T15:08:36Z,42.805,6.029,13.3057,4.60178,2470.857,2024-5-04T17:11:18Z
2024-05-04T15:11:39Z,42.805,6.029,13.3057,4.60169,2470.894,2024-5-04T17:14:21Z
2024-05-04T15:14:42Z,42.805,6.029,13.3059,4.60157,2470.857,2024-5-04T17:17:24Z